Weather History for Munich, Germany

Change the Weather History Date:

Monday, April 1, 2013

  Actual Average Record
Temperature  
Mean Temperature 30 °F -  
Max Temperature 37 °F 54 °F 66 °F (1998)
Min Temperature 23 °F 35 °F 23 °F (2013)
Degree Days  
Heating Degree Days 35    
Moisture  
Dew Point 25 °F    
Average Humidity 78    
Maximum Humidity 100    
Minimum Humidity 56    
Precipitation  
Precipitation 0.00 in - - ()
Sea Level Pressure  
Sea Level Pressure 29.74 in    
Wind  
Wind Speed 6 mph ()    
Max Wind Speed 13 mph    
Max Gust Speed -    
Visibility 6.1 miles    
Events Fog    
Averages and records for this station are not official NWS values.
T = Trace of Precipitation, MM = Missing Value Source: Averaged Metar Reports

Daily Weather History Graph

Daily Weather History Graph

Search for Another Location

Airport:

Trip Planner

Search our weather history database for the weather conditions in past years. The results will help you decide how hot, cold, wet, or windy it might be!

Date:

Astronomy

Apr. 01, 2013 Rise Set
Actual Time 6:50 AM CEST 7:43 PM CEST
Civil Twilight 6:19 AM CEST 8:14 PM CEST
Nautical Twilight 5:41 AM CEST 8:52 PM CEST
Astronomical Twilight 5:01 AM CEST 9:33 PM CEST
Moon 12:54 AM CEST 9:59 AM CEST
Length of Visible Light 13h 55m
Length of Day
12h 52m
Waning Gibbous, 70% of the Moon is Illuminated
Apr 1
Waning Gibbous
Apr 3
Last Quarter
Apr 10
New
Apr 18
First Quarter
Apr 25
Full

Hourly Weather History & Observations

Time (CEST) Temp. Windchill Dew Point Humidity Pressure Visibility Wind Dir Wind Speed Gust Speed Precip Events Conditions
12:20 AM 30.2 °F 25.4 °F 24.8 °F 80% 29.77 in 6.2 mi NNW 4.6 mph - N/A   Mostly Cloudy
12:50 AM 30.2 °F 25.4 °F 24.8 °F 80% 29.77 in 6.2 mi North 4.6 mph - N/A   Mostly Cloudy
1:20 AM 28.4 °F 22.2 °F 24.8 °F 86% 29.77 in 6.2 mi NNW 5.8 mph - N/A   Mostly Cloudy
1:50 AM 28.4 °F 24.6 °F 24.8 °F 86% 29.77 in 6.2 mi North 3.5 mph - N/A   Mostly Cloudy
2:20 AM 28.4 °F 24.6 °F 24.8 °F 86% 29.77 in 6.2 mi North 3.5 mph - N/A   Mostly Cloudy
2:50 AM 26.6 °F - 24.8 °F 93% 29.77 in 6.2 mi NNW 2.3 mph - N/A   Scattered Clouds
3:20 AM 26.6 °F - 24.8 °F 93% 29.77 in 6.2 mi NNE 2.3 mph - N/A   Scattered Clouds
3:50 AM 26.6 °F - 24.8 °F 93% 29.74 in 6.2 mi NNE 1.2 mph - N/A   Mostly Cloudy
4:20 AM 24.8 °F 20.5 °F 24.8 °F 100% 29.74 in 6.2 mi East 3.5 mph - N/A   Mostly Cloudy
4:50 AM 24.8 °F 20.5 °F 24.8 °F 100% 29.74 in 6.2 mi East 3.5 mph - N/A   Scattered Clouds
5:20 AM 23.0 °F - 23.0 °F 100% 29.74 in 6.2 mi Variable 1.2 mph - N/A   Scattered Clouds
5:50 AM 24.8 °F - 24.8 °F 100% 29.74 in 6.2 mi ENE 2.3 mph - N/A Fog Shallow Fog
6:20 AM 23.0 °F - 23.0 °F 100% 29.74 in 5.6 mi NE 2.3 mph - N/A Fog Fog
6:50 AM 23.0 °F - 23.0 °F 100% 29.74 in 5.6 mi ENE 2.3 mph - N/A   Mostly Cloudy
7:20 AM 24.8 °F 20.5 °F 24.8 °F 100% 29.74 in 5.6 mi NE 3.5 mph - N/A   Mostly Cloudy
7:50 AM 26.6 °F 21.2 °F 26.6 °F 100% 29.74 in 5.6 mi NE 4.6 mph - N/A   Mostly Cloudy
8:20 AM 28.4 °F 22.2 °F 26.6 °F 93% 29.74 in 5.0 mi NE 5.8 mph - N/A   Scattered Clouds
8:50 AM 28.4 °F 21.2 °F 24.8 °F 86% 29.74 in 5.6 mi NE 6.9 mph - N/A   Scattered Clouds
9:20 AM 30.2 °F 21.9 °F 26.6 °F 86% 29.74 in 5.6 mi NE 9.2 mph - N/A   Scattered Clouds
9:50 AM 30.2 °F 22.6 °F 26.6 °F 86% 29.74 in 6.2 mi ENE 8.1 mph - N/A   Scattered Clouds
10:20 AM 30.2 °F 21.9 °F 24.8 °F 80% 29.74 in 6.2 mi NE 9.2 mph - N/A   Partly Cloudy
10:50 AM 32.0 °F 24.8 °F 26.6 °F 80% 29.74 in 6.2 mi NE 8.1 mph - N/A   Partly Cloudy
11:20 AM 33.8 °F 27.7 °F 26.6 °F 75% 29.74 in 6.2 mi ENE 6.9 mph - N/A   Scattered Clouds
11:50 AM 33.8 °F 27.7 °F 24.8 °F 70% 29.74 in 6.2 mi East 6.9 mph - N/A   Scattered Clouds
12:20 PM 35.6 °F 29.2 °F 26.6 °F 70% 29.74 in 6.2 mi NE 8.1 mph - N/A   Mostly Cloudy
12:50 PM 35.6 °F 29.2 °F 24.8 °F 65% 29.74 in 6.2 mi ENE 8.1 mph - N/A   Scattered Clouds
1:20 PM 35.6 °F 28.6 °F 23.0 °F 60% 29.74 in 6.2 mi ENE 9.2 mph - N/A   Mostly Cloudy
1:50 PM 37.4 °F 32.1 °F 24.8 °F 60% 29.74 in 6.2 mi ENE 6.9 mph - N/A   Mostly Cloudy
2:20 PM 37.4 °F 32.1 °F 23.0 °F 56% 29.71 in 6.2 mi NE 6.9 mph - N/A   Mostly Cloudy
2:50 PM 35.6 °F 28.0 °F 23.0 °F 60% 29.71 in 6.2 mi NE 10.4 mph - N/A   Mostly Cloudy
3:20 PM 35.6 °F 28.0 °F 24.8 °F 65% 29.71 in 6.2 mi NE 10.4 mph - N/A   Overcast
3:50 PM 35.6 °F 28.6 °F 23.0 °F 60% 29.74 in 6.2 mi ENE 9.2 mph - N/A   Overcast
4:20 PM 37.4 °F 30.8 °F 23.0 °F 56% 29.74 in 6.2 mi ENE 9.2 mph - N/A   Overcast
4:50 PM 37.4 °F 30.8 °F 23.0 °F 56% 29.74 in 6.2 mi ENE 9.2 mph - N/A   Overcast
5:20 PM 37.4 °F 31.4 °F 23.0 °F 56% 29.74 in 6.2 mi East 8.1 mph - N/A   Mostly Cloudy
5:50 PM 35.6 °F 28.6 °F 23.0 °F 60% 29.71 in 6.2 mi ENE 9.2 mph - N/A   Mostly Cloudy
6:20 PM 35.6 °F 27.5 °F 24.8 °F 65% 29.71 in 6.2 mi ENE 11.5 mph - N/A   Mostly Cloudy
6:50 PM 35.6 °F 27.5 °F 24.8 °F 65% 29.71 in 6.2 mi ENE 11.5 mph - N/A   Mostly Cloudy
7:20 PM 35.6 °F 27.5 °F 23.0 °F 60% 29.71 in 6.2 mi ENE 11.5 mph - N/A   Mostly Cloudy
7:50 PM 33.8 °F 24.8 °F 23.0 °F 65% 29.74 in 6.2 mi ENE 12.7 mph - N/A   Mostly Cloudy
8:20 PM 33.8 °F 24.8 °F 24.8 °F 70% 29.74 in 6.2 mi ENE 12.7 mph - N/A   Mostly Cloudy
8:50 PM 33.8 °F 25.8 °F 24.8 °F 70% 29.74 in 6.2 mi ENE 10.4 mph - N/A   Mostly Cloudy
9:20 PM 32.0 °F 24.2 °F 24.8 °F 75% 29.74 in 6.2 mi ENE 9.2 mph - N/A   Mostly Cloudy
9:50 PM 32.0 °F 23.6 °F 24.8 °F 75% 29.74 in 6.2 mi ENE 10.4 mph - N/A   Mostly Cloudy
10:20 PM 32.0 °F 24.2 °F 24.8 °F 75% 29.74 in 6.2 mi East 9.2 mph - N/A   Mostly Cloudy
10:50 PM 32.0 °F 24.2 °F 24.8 °F 75% 29.71 in 6.2 mi East 9.2 mph - N/A   Scattered Clouds
11:20 PM 30.2 °F 22.6 °F 24.8 °F 80% 29.71 in 6.2 mi ENE 8.1 mph - N/A   Mostly Cloudy
11:50 PM 32.0 °F 24.8 °F 24.8 °F 75% 29.71 in 6.2 mi ENE 8.1 mph - N/A   Mostly Cloudy